TimeCST,TemperatureF,Dew PointF,Humidity,Sea Level PressureIn,VisibilityMPH,Wind Direction,Wind SpeedMPH,Gust SpeedMPH,PrecipitationIn,Events,Conditions,WindDirDegrees,DateUTC
12:54 AM,5.0,1.9,87,30.28,10.0,SW,5.8,-,N/A,,Clear,220,2013-01-02 06:54:00
1:54 AM,6.1,1.9,83,30.27,10.0,SW,4.6,-,N/A,,Clear,220,2013-01-02 07:54:00
2:54 AM,3.9,1.0,88,30.26,8.0,North,-9999.0,-,N/A,,Clear,0,2013-01-02 08:54:00
3:54 AM,3.9,-0.0,84,30.26,8.0,SSW,6.9,-,N/A,,Clear,200,2013-01-02 09:54:00
4:54 AM,5.0,1.9,87,30.24,8.0,South,5.8,-,N/A,,Clear,190,2013-01-02 10:54:00
5:54 AM,7.0,3.0,84,30.25,8.0,South,6.9,-,N/A,,Clear,190,2013-01-02 11:54:00
6:54 AM,8.1,3.0,80,30.25,9.0,South,9.2,-,N/A,,Clear,190,2013-01-02 12:54:00
7:54 AM,8.1,3.9,83,30.25,8.0,SSW,11.5,-,N/A,,Clear,200,2013-01-02 13:54:00
8:54 AM,10.9,6.1,81,30.24,9.0,SSW,9.2,-,N/A,,Clear,200,2013-01-02 14:54:00
9:54 AM,-9999,-9999,N/A,30.19,-9999.0,North,-9999.0,-,N/A,,Unknown,0,2013-01-02 15:54:00
10:54 AM,-9999,-9999,N/A,30.19,-9999.0,North,-9999.0,-,N/A,,Unknown,0,2013-01-02 16:54:00
11:54 AM,23.0,12.0,63,30.20,10.0,South,11.5,-,N/A,,Clear,190,2013-01-02 17:54:00
12:54 PM,25.0,15.1,66,30.17,10.0,SSW,11.5,-,N/A,,Clear,210,2013-01-02 18:54:00
1:54 PM,27.0,16.0,63,30.16,10.0,South,12.7,-,N/A,,Clear,190,2013-01-02 19:54:00
2:54 PM,28.0,16.0,61,30.15,10.0,South,12.7,-,N/A,,Clear,190,2013-01-02 20:54:00
3:54 PM,27.0,16.0,63,30.16,10.0,South,11.5,-,N/A,,Clear,190,2013-01-02 21:54:00
4:54 PM,26.1,15.1,63,30.15,10.0,South,10.4,-,N/A,,Clear,190,2013-01-02 22:54:00
5:54 PM,24.1,14.0,65,30.17,10.0,SSW,11.5,-,N/A,,Clear,210,2013-01-02 23:54:00
6:54 PM,21.9,12.9,68,30.19,10.0,SSW,8.1,-,N/A,,Clear,210,2013-01-03 00:54:00
7:54 PM,21.9,12.9,68,30.19,10.0,SW,11.5,-,N/A,,Clear,220,2013-01-03 01:54:00
8:54 PM,25.0,16.0,69,30.20,10.0,SSW,9.2,-,N/A,,Overcast,210,2013-01-03 02:54:00
9:54 PM,26.1,17.1,69,30.17,10.0,SW,9.2,-,N/A,,Mostly Cloudy,230,2013-01-03 03:54:00
10:54 PM,27.0,19.0,72,30.17,10.0,WSW,9.2,-,N/A,,Overcast,240,2013-01-03 04:54:00
11:54 PM,27.0,19.0,72,30.20,10.0,West,6.9,-,N/A,,Overcast,260,2013-01-03 05:54:00